User: anonymous   Login
Location: Unspecified
(0.0000°N, 0.0000°E)
Time: 10:59:13
(UTC+01:00)
Language:

Cosmos 1437 - Orbit

View from above orbital plane
View from above orbital plane
View from above satellite
View from above satellite

Ground track
Ground track

The orbit data is extracted from the following two-line orbital elements,

1 13770U 83003A   16345.52760517  .00008085  00000-0  14723-3 0  9995
2 13770  81.1593  19.7889 0006952 194.1829 165.9223 15.49291925857291
Epoch (UTC): 10 December 2016 12:39:45
Eccentricity: 0.0006952
inclination: 81.1593°
perigee height: 414 km
apogee height: 423 km
right ascension of ascending node: 19.7889°
argument of perigee: 194.1829°
revolutions per day: 15.49291925
mean anomaly at epoch: 165.9223°
orbit number at epoch: 85729

The dashed part of the orbit path shows where the satellite is in the earth's shadow,  

DLR